{"data":{"norad_id":54653,"intl_designator":"2022-166M","name":"ONEWEB-0586","alt_names":[],"object_type":"PAYLOAD","status":"ACTIVE","operator":null,"country":"UK","launch_date":"2022-12-08","launch_site_code":"AFETR","launch_vehicle":null,"mission":null,"orbit_class":"UNKNOWN","rcs_meters":null,"size_class":null,"mass_kg":null,"dimensions":null,"purposes":["comms"],"wikipedia_slug":null,"has_3d_model":false,"image_url":null,"decayed_at":null,"tle_current":{"epoch":"2026-09-20T04:46:50.365056Z","epoch_age_seconds":48005,"freshness":"FRESH","line1":"1 54653U 22166M   26263.19919404 -.00000025  00000+0 -92035-4 0  9997","line2":"2 54653  87.9281 225.0826 0002318  83.0095 277.1303 13.21824662184072","mean_motion":13.21824662,"eccentricity":0.0002318,"inclination_deg":87.9281,"raan_deg":225.0826,"arg_perigee_deg":83.0095,"mean_anomaly_deg":277.1303,"bstar":-9.2035e-5,"rev_number":18407,"period_min":108.94031874252,"perigee_km":1176.0070106995,"apogee_km":1179.5099238382,"semimajor_km":7555.8954672689,"source":"CELESTRAK","updated_at":"2026-09-20T09:00:44.743192Z"}}}